Weather History for CWFD - August, 2013

Change the Weather History Date:

Tuesday, August 27, 2013

  Actual Average Record
Temperature  
Mean Temperature 26 °F -  
Max Temperature 30 °F - - ()
Min Temperature 23 °F - - ()
Degree Days  
Heating Degree Days 38    
Moisture  
Dew Point -    
Average Humidity    
Maximum Humidity    
Minimum Humidity    
Precipitation  
Precipitation 0.00 in - - ()
Sea Level Pressure  
Sea Level Pressure 29.32 in    
Wind  
Wind Speed 25 mph ()    
Max Wind Speed 54 mph    
Max Gust Speed 54 mph    
Visibility 1.8 miles    
Events      
T = Trace of Precipitation, MM = Missing Value Source: Averaged Metar Reports

Daily Weather History Graph

Daily Weather History Graph

Search for Another Location

Airport or City:

Trip Planner

Search our weather history database for the weather conditions in past years. The results will help you decide how hot, cold, wet, or windy it might be!

Date:

Astronomy

Aug. 27, 2013 Rise Set
Actual Time 5:21 AM ADT 8:49 PM ADT
Civil Twilight 4:17 AM ADT 9:53 PM ADT
Nautical Twilight 2:26 AM ADT 11:39 PM ADT
Astronomical Twilight Sun does not set Sun does not set
Moon 9:13 PM ADT (8/27) 3:39 PM ADT (8/27)
Length of Visible Light 17h 36m
Length of Day
15h 28m
Waning Gibbous, 57% of the Moon is Illuminated
Aug 27
Waning Gibbous
Aug 28
Last Quarter
Sep 5
New
Sep 12
First Quarter
Sep 19
Full

Hourly Weather History & Observations

Time (ADT) Temp. Windchill Dew Point Humidity Pressure Visibility Wind Dir Wind Speed Gust Speed Precip Events Conditions
12:00 AM 26 °F - - % 29.49 in 0 mi North 11.5 mph - -  
12:00 AM 26.6 °F 15.7 °F - N/A% 29.49 in 0.1 mi North 12.7 mph - N/A   Clear
1:00 AM 26.6 °F 15.7 °F - N/A% 29.47 in 0.1 mi North 12.7 mph 19.6 mph N/A   Clear
2:00 AM 26.6 °F 13.4 °F - N/A% 29.46 in 0.1 mi North 18.4 mph 24.2 mph N/A   Clear
3:00 AM 26 °F - - % 29.43 in 0 mi North 25.3 mph - -  
3:00 AM 26.6 °F 11.7 °F - N/A% 29.43 in 0.1 mi North 24.2 mph 32.2 mph N/A   Clear
3:18 AM 24.8 °F 8.4 °F - N/A% 29.26 in 0.1 mi North 27.6 mph - N/A   Clear
3:19 AM 24.8 °F 8.1 °F - N/A% 29.26 in 0.1 mi North 28.8 mph - N/A   Overcast
3:20 AM 24.8 °F 8.4 °F - N/A% 29.26 in 0.1 mi North 27.6 mph - N/A   Overcast
3:23 AM 24.8 °F 8.7 °F - N/A% 29.26 in 0.6 mi North 26.5 mph - N/A   Clear
3:25 AM 24.8 °F 8.7 °F - N/A% 29.26 in 0.6 mi North 26.5 mph - N/A   Scattered Clouds
3:28 AM 24.8 °F 8.7 °F - N/A% 29.26 in 0.6 mi North 26.5 mph - N/A   Mostly Cloudy
3:34 AM 24.8 °F 8.7 °F - N/A% 29.26 in 0.4 mi North 26.5 mph - N/A   Overcast
3:41 AM 24.8 °F 9.0 °F - N/A% 29.26 in 0.1 mi North 25.3 mph 32.2 mph N/A   Overcast
4:00 AM 24.8 °F 8.7 °F - N/A% 29.42 in 0.1 mi North 26.5 mph 32.2 mph N/A   Clear
4:37 AM 24.8 °F 8.1 °F - N/A% 29.24 in 0.5 mi North 28.8 mph - N/A   Clear
4:42 AM 24.8 °F 8.1 °F - N/A% 29.25 in 1.5 mi North 28.8 mph - N/A   Clear
4:45 AM 24.8 °F 8.7 °F - N/A% 29.25 in 1.2 mi North 26.5 mph 33.4 mph N/A   Mostly Cloudy
4:51 AM 24.8 °F 8.4 °F - N/A% 29.25 in 1.4 mi North 27.6 mph 35.7 mph N/A   Mostly Cloudy
4:54 AM 24.8 °F 8.1 °F - N/A% 29.24 in 3.0 mi North 28.8 mph 35.7 mph N/A   Mostly Cloudy
5:00 AM 24.8 °F 9.0 °F - N/A% 29.41 in 9.0 mi North 25.3 mph 35.7 mph N/A   Mostly Cloudy
5:15 AM 24.8 °F 8.7 °F - N/A% 29.25 in 9.0 mi North 26.5 mph - N/A   Overcast
5:19 AM 24.8 °F 9.3 °F - N/A% 29.24 in 9.0 mi North 24.2 mph - N/A   Overcast
5:20 AM 24.8 °F 9.6 °F - N/A% 29.24 in 9.0 mi North 23.0 mph 28.8 mph N/A   Overcast
5:22 AM 24.8 °F 9.0 °F - N/A% 29.24 in 3.0 mi North 25.3 mph - N/A   Overcast
5:26 AM 24.8 °F 8.7 °F - N/A% 29.24 in 1.1 mi North 26.5 mph - N/A   Unknown
5:27 AM 24.8 °F 8.7 °F - N/A% 29.24 in 1.0 mi North 26.5 mph - N/A   Unknown
5:28 AM 24.8 °F 9.3 °F - N/A% 29.24 in 0.6 mi North 24.2 mph - N/A   Unknown
5:30 AM 24.8 °F 8.4 °F - N/A% 29.24 in 0.5 mi North 27.6 mph - N/A   Clear
5:33 AM 24.8 °F 9.0 °F - N/A% 29.24 in 0.4 mi North 25.3 mph - N/A   Overcast
5:39 AM 24.8 °F 7.1 °F - N/A% 29.24 in 0.8 mi North 33.4 mph - N/A   Overcast
5:42 AM 24.8 °F 8.1 °F - N/A% 29.24 in 2.0 mi North 28.8 mph 34.5 mph N/A   Mostly Cloudy
5:52 AM 23.0 °F 6.0 °F - N/A% 29.24 in 9.0 mi NNW 27.6 mph 33.4 mph N/A   Unknown
5:57 AM 23.0 °F 5.7 °F - N/A% 29.24 in 9.0 mi North 28.8 mph - N/A   Unknown
6:00 AM 24 °F - - % 29.40 in 7 mi North 27.6 mph - -   Overcast
6:00 AM 23.0 °F 5.4 °F - N/A% 29.40 in 8.0 mi North 29.9 mph - N/A   Overcast
6:26 AM 23.0 °F 6.3 °F - N/A% 29.23 in 6.0 mi North 26.5 mph 33.4 mph N/A   Mostly Cloudy
6:31 AM 23.0 °F 7.6 °F - N/A% 29.24 in 6.0 mi North 21.9 mph 33.4 mph N/A   Mostly Cloudy
6:35 AM 23.0 °F 5.7 °F - N/A% 29.23 in 5.0 mi NNW 28.8 mph 34.5 mph N/A   Mostly Cloudy
6:42 AM 23.0 °F 6.0 °F - N/A% 29.23 in 5.0 mi NNW 27.6 mph 33.4 mph N/A   Scattered Clouds
6:49 AM 23.0 °F 6.3 °F - N/A% 29.23 in 3.0 mi North 26.5 mph 41.4 mph N/A   Partly Cloudy
7:00 AM 23.0 °F 6.6 °F - N/A% 29.39 in 2.0 mi NNW 25.3 mph 32.2 mph N/A   Unknown
7:18 AM 23.0 °F 5.4 °F - N/A% 29.21 in 1.4 mi North 29.9 mph - N/A   Unknown
7:30 AM 23.0 °F 6.3 °F - N/A% 29.21 in 1.4 mi NNW 26.5 mph - N/A   Scattered Clouds
7:37 AM 23.0 °F 8.7 °F - N/A% 29.22 in 2.1 mi NNW 18.4 mph 31.1 mph N/A   Scattered Clouds
7:49 AM 23.0 °F 7.2 °F - N/A% 29.21 in 3.0 mi NNW 23.0 mph 28.8 mph N/A   Mostly Cloudy
7:51 AM 23.0 °F 5.7 °F - N/A% 29.21 in 3.0 mi NNW 28.8 mph - N/A   Mostly Cloudy
8:00 AM 23.0 °F 6.3 °F - N/A% 29.38 in 2.6 mi NNW 26.5 mph 33.4 mph N/A   Mostly Cloudy
8:09 AM 23.0 °F 7.2 °F - N/A% 29.21 in 1.2 mi North 23.0 mph 28.8 mph N/A   Overcast
8:11 AM 23.0 °F 6.0 °F - N/A% 29.20 in 1.1 mi NNW 27.6 mph - N/A   Overcast
8:33 AM 24.8 °F 9.0 °F - N/A% 29.20 in 2.1 mi North 25.3 mph - N/A   Unknown
8:44 AM 24.8 °F 9.0 °F - N/A% 29.19 in 3.0 mi NNW 25.3 mph - N/A   Overcast
8:45 AM 24.8 °F 9.0 °F - N/A% 29.19 in 3.0 mi NNW 25.3 mph - N/A   Overcast
8:59 AM 24.8 °F 7.3 °F - N/A% 29.18 in 3.5 mi NNW 32.2 mph - N/A   Overcast
9:00 AM 24 °F - - % 29.35 in 4 mi NNW 28.8 mph - -  
9:00 AM 24.8 °F 7.6 °F - N/A% 29.35 in 4.0 mi NNW 31.1 mph 36.8 mph N/A   Mostly Cloudy
9:48 AM 26.6 °F 11.4 °F - N/A% 29.18 in 2.1 mi North 25.3 mph 36.8 mph N/A   Overcast
9:50 AM 26.6 °F 11.7 °F - N/A% 29.18 in 1.4 mi NNW 24.2 mph 32.2 mph N/A   Overcast
9:52 AM 26.6 °F 11.1 °F - N/A% 29.19 in 1.1 mi North 26.5 mph 32.2 mph N/A   Overcast
9:53 AM 26.6 °F 11.1 °F - N/A% 29.18 in 1.0 mi North 26.5 mph 35.7 mph N/A   Overcast
9:55 AM 24.8 °F 8.4 °F - N/A% 29.18 in 0.6 mi NNW 27.6 mph 35.7 mph N/A   Overcast
10:00 AM 24.8 °F 8.1 °F - N/A% 29.35 in 0.2 mi North 28.8 mph 36.8 mph N/A   Unknown
10:04 AM 24.8 °F 7.9 °F - N/A% 29.19 in 0.1 mi North 29.9 mph 36.8 mph N/A   Clear
10:11 AM 24.8 °F 7.1 °F - N/A% 29.18 in 0.1 mi North 33.4 mph 41.4 mph N/A   Overcast
10:59 AM 26.6 °F 9.6 °F - N/A% 29.20 in 0.2 mi North 33.4 mph 47.2 mph N/A   Clear
11:00 AM 26.6 °F 9.1 °F - N/A% 29.36 in 0.2 mi North 35.7 mph 47.2 mph N/A   Clear
11:02 AM 26.6 °F 9.8 °F - N/A% 29.20 in 0.1 mi North 32.2 mph 43.7 mph N/A   Clear
12:00 PM 26 °F - - % 29.39 in 0 mi North 33.4 mph - -  
12:00 PM 26.6 °F 10.0 °F - N/A% 29.39 in 0.1 mi North 31.1 mph 39.1 mph N/A   Clear
12:13 PM 24.8 °F 8.7 °F - N/A% 29.23 in 0.2 mi North 26.5 mph 36.8 mph N/A   Clear
12:19 PM 26.6 °F 10.8 °F - N/A% 29.23 in 1.0 mi North 27.6 mph 34.5 mph N/A   Mostly Cloudy
12:25 PM 24.8 °F 8.4 °F - N/A% 29.23 in 0.6 mi North 27.6 mph 34.5 mph N/A   Overcast
12:44 PM 24.8 °F 10.3 °F - N/A% 29.24 in 0.4 mi North 20.7 mph 31.1 mph N/A   Overcast
1:00 PM 24.8 °F 8.7 °F - N/A% 29.40 in 0.4 mi North 26.5 mph - N/A   Clear
1:55 PM 26.6 °F 13.4 °F - N/A% 29.24 in 0.1 mi North 18.4 mph - N/A   Clear
2:00 PM 26.6 °F 13.1 °F - N/A% 29.40 in 0.1 mi North 19.6 mph 27.6 mph N/A   Clear
2:20 PM 28.4 °F 13.3 °F - N/A% 29.24 in 0.4 mi North 27.6 mph - N/A   Overcast
2:24 PM 28.4 °F 13.8 °F - N/A% 29.24 in 0.8 mi NNW 25.3 mph 32.2 mph N/A   Overcast
2:28 PM 28.4 °F 15.4 °F - N/A% 29.24 in 0.6 mi NNW 19.6 mph 32.2 mph N/A   Overcast
2:31 PM 28.4 °F 15.1 °F - N/A% 29.24 in 0.4 mi NNW 20.7 mph 32.2 mph N/A   Overcast
2:39 PM 28.4 °F 14.4 °F - N/A% 29.25 in 0.1 mi North 23.0 mph - N/A   Overcast
3:00 PM 28 °F - - % 29.41 in 0 mi North 53.7 mph - -   Overcast
3:00 PM 28.4 °F 13.0 °F - N/A% 29.41 in 0.1 mi North 28.8 mph - N/A   Overcast
4:00 PM 30.2 °F 13.9 °F - N/A% 29.42 in 0.1 mi North 36.8 mph 43.7 mph N/A   Clear
5:00 PM 30.2 °F 13.3 °F - N/A% 29.43 in 0.1 mi North 40.3 mph 51.8 mph N/A   Clear
6:00 PM 29 °F - - % 29.45 in 0 mi North 44.9 mph - -  
6:00 PM 30.2 °F 12.7 °F - N/A% 29.45 in 0.1 mi North 43.7 mph 54.1 mph N/A   Clear
7:00 PM 28.4 °F 11.0 °F - N/A% 29.48 in 0.1 mi NNW 39.1 mph 50.6 mph N/A   Overcast
7:08 PM 28.4 °F 11.4 °F - N/A% 29.32 in 0.5 mi North 36.8 mph 43.7 mph N/A   Unknown
7:20 PM 28.4 °F 11.8 °F - N/A% 29.33 in 0.6 mi North 34.5 mph 47.2 mph N/A   Overcast
7:21 PM 28.4 °F 12.3 °F - N/A% 29.33 in 0.5 mi North 32.2 mph 47.2 mph N/A   Clear
7:28 PM 28.4 °F 11.2 °F - N/A% 29.33 in 0.4 mi North 38.0 mph 46.0 mph N/A   Overcast
7:37 PM 26.6 °F 8.1 °F - N/A% 29.33 in 0.4 mi North 41.4 mph - N/A   Overcast
7:42 PM 26.6 °F 8.7 °F - N/A% 29.34 in 0.4 mi North 38.0 mph - N/A   Overcast
7:43 PM 26.6 °F 8.9 °F - N/A% 29.34 in 1.0 mi North 36.8 mph - N/A   Overcast
7:49 PM 26.6 °F 9.3 °F - N/A% 29.34 in 1.5 mi North 34.5 mph - N/A   Overcast
7:52 PM 26.6 °F 10.3 °F - N/A% 29.35 in 2.2 mi North 29.9 mph 39.1 mph N/A   Overcast
7:56 PM 26.6 °F 10.0 °F - N/A% 29.35 in 2.4 mi North 31.1 mph 38.0 mph N/A   Clear
8:00 PM 26.6 °F 9.8 °F - N/A% 29.52 in 1.8 mi NNW 32.2 mph 41.4 mph N/A   Clear
8:10 PM 26.6 °F 10.8 °F - N/A% 29.35 in 3.0 mi North 27.6 mph 39.1 mph N/A   Overcast
8:19 PM 26.6 °F 9.3 °F - N/A% 29.35 in 5.0 mi North 34.5 mph 42.6 mph N/A   Overcast
8:29 PM 26.6 °F 9.8 °F - N/A% 29.35 in 4.0 mi North 32.2 mph 43.7 mph N/A   Mostly Cloudy
8:36 PM 26.6 °F 10.8 °F - N/A% 29.36 in 3.5 mi NNW 27.6 mph 43.7 mph N/A   Scattered Clouds
8:47 PM 26.6 °F 9.8 °F - N/A% 29.37 in 2.8 mi North 32.2 mph 39.1 mph N/A   Mostly Cloudy
8:48 PM 26.6 °F 10.3 °F - N/A% 29.37 in 2.5 mi North 29.9 mph 39.1 mph N/A   Mostly Cloudy
9:00 PM 26 °F - - % 29.54 in 3 mi North 29.9 mph - -  
9:00 PM 26.6 °F 10.6 °F - N/A% 29.54 in 3.0 mi North 28.8 mph 39.1 mph N/A   Unknown
9:08 PM 26.6 °F 10.8 °F - N/A% 29.37 in 1.0 mi NNW 27.6 mph 35.7 mph N/A   Overcast
9:09 PM 26.6 °F 9.6 °F - N/A% 29.37 in 0.6 mi North 33.4 mph 41.4 mph N/A   Overcast
9:12 PM 26.6 °F 10.0 °F - N/A% 29.37 in 0.4 mi NNW 31.1 mph 41.4 mph N/A   Overcast
9:25 PM 26.6 °F 9.8 °F - N/A% 29.38 in 0.8 mi North 32.2 mph 47.2 mph N/A   Unknown
9:34 PM 26.6 °F 9.1 °F - N/A% 29.37 in 1.0 mi NNW 35.7 mph 47.2 mph N/A   Overcast
9:35 PM 26.6 °F 8.5 °F - N/A% 29.37 in 1.2 mi North 39.1 mph 47.2 mph N/A   Overcast
9:37 PM 26.6 °F 10.0 °F - N/A% 29.38 in 1.4 mi North 31.1 mph 47.2 mph N/A   Mostly Cloudy
9:46 PM 24.8 °F 7.3 °F - N/A% 29.38 in 2.8 mi North 32.2 mph 42.6 mph N/A   Partly Cloudy
9:59 PM 26.6 °F 12.4 °F - N/A% 29.39 in 3.5 mi North 21.9 mph 34.5 mph N/A   Scattered Clouds
10:00 PM 26.6 °F 12.0 °F - N/A% 29.56 in 3.5 mi North 23.0 mph 34.5 mph N/A   Scattered Clouds
10:04 PM 26.6 °F 10.6 °F - N/A% 29.39 in 2.8 mi NNW 28.8 mph 34.5 mph N/A   Mostly Cloudy
10:21 PM 26.6 °F 11.4 °F - N/A% 29.39 in 1.4 mi North 25.3 mph 39.1 mph N/A   Mostly Cloudy
10:32 PM 26.6 °F 12.4 °F - N/A% 29.40 in 2.0 mi North 21.9 mph 34.5 mph N/A   Unknown
10:59 PM 26.6 °F 11.7 °F - N/A% 29.40 in 1.1 mi North 24.2 mph 29.9 mph N/A   Overcast
11:00 PM 26.6 °F 12.0 °F - N/A% 29.57 in 0.8 mi North 23.0 mph 29.9 mph N/A   Overcast
11:08 PM 26.6 °F 12.4 °F - N/A% 29.40 in 0.1 mi NNW 21.9 mph 28.8 mph N/A   Overcast
11:11 PM 26.6 °F 11.7 °F - N/A% 29.40 in 0.1 mi North 24.2 mph - N/A   Unknown